Location: Cosy Dell
(34.2789°N, 117.4537°W)
Time: 19:48:19
(UTC+00:00)

Cosmos 1980 Rocket - Pass Details

Date: 14 July 2020
Orbit: 828 x 851 km, 71.0° (Epoch: 13 August)

Event Time Altitude Azimuth Distance (km) Brightness Sun altitude
Rises 10:12:22 0° 346° (NNW) 3,421 5.9 -25.4°
Reaches altitude 10° 10:14:58 10° 353° (N) 2,481 5.2 -25.1°
Maximum altitude 10:20:21 43° 64° (ENE) 1,182 3.3 -24.4°
Drops below altitude 10° 10:25:42 10° 135° (SE) 2,458 4.5 -23.8°
Sets 10:28:15 0° 142° (SE) 3,386 5.2 -23.4°
